Showing default

OPS 9326 (IDSCS 13), 2653

Orbit data source: Space-Track

OPS 9326 (IDSCS 13), 2653 is a payload satellite owned by USAF SSD (US) in GEO that was launched on Wed, 18 Jan 1967 UTC via a TITAN IIIC launch vehicle from the Air Force Eastern Test Range (AFETR). Payloads include a variety of satellites, spacecraft, and rockets equipped with specific instruments for various scientific and technological missions. These include communications satellites like Starlink; space stations such as the ISS; scientific satellites like the Hubble; Earth observation satellites from companies like Planet Labs, Umbra, and HawkEye 360; GPS; miniature CubeSats for education and research; and military/defense satellites.

Not visible in the next 10 days
OPS 9326 (IDSCS 13) details
Identifier
2653, 1967-003F
Orbit
GEO
Last TLE update1 week ago
Origin
Flag of USUSAF SSD (US)
ManufacturerPhilco-Ford WDL
MissionNon-operational Defense Communications
Bus & MotorIDCSP, Unknown motor
Mass45 kg wet, 45 kg dry
Launch date (UTC)
1967-01-18 (58 years ago)
Launch vehicle
TITAN IIIC
Launch site
Air Force Eastern Test Range (AFETR)
Object type
Payload
Rocket body
Debris
Shape & HBRIco Poly, 0.9 m
Radar Cross Section0.926 m², Medium (>0.1 m² and < 1m²)

Expand to show TLE details & history

TLE from 1 week ago
0 OPS 9326 (IDSCS 13)
1  2653U 67003F   25015.26246088 -.00000084  00000-0  00000+0 0  9993
2  2653   7.1900  50.8165 0044732  50.0399 310.3851  1.07748732127141
Epoch: 2025-01-15T06:17Z
Definitive object data (Epoch: 2025-01-15T06:17:56.62Z)
Latitude0.00001°
Longitude-158.57505°
Altitude33,695.938 km
Speed3.158 km/s
True Right ascension03h 23m 28s
True Declination0° 00' 00"
Sunlit
Object was in daylight at TLE epoch
Visualization TLE readout
Latitude3.90937°
Longitude-126.04416°
Altitude33,639.544 km
Speed3.163 km/s
Apparent Right ascension05h 36m 21s
Apparent Declination-1° 43' 13"
Sunlit
Object is in daylight
Visualization observer readout
Local Sidereal Time17:58:54
Azimuth9.07° NNE
Elevation-51.462°
Doppler factor1
Orbital elements
Apogee altitude33,993.582 km
Perigee altitude33,634.009 km
Semi-major axis40,191.933 km
Eccentricity0.0044732
Inclination7.19°
RAAN50.8165°
Arg. of periapsis50.0399°
True anomaly309.99324°
Mean anomaly310.3851°
Eccentric anomaly310.18931°
Mean motion0.26936 °/min
BSTARUnknown
Orbital period1336.5 mins
Loading historical data...
2653 neighbors
Authenticating...
Loading maneuver chart data...
Loading historical data...
Loading historical data...
Loading historical data...
Loading historical data...
Loading historical data...
Loading historical data...
Loading historical data...

OPS 9326 (IDSCS 13) Visibility forecast

Observer location: undefined°, undefined

OPS 9326 (IDSCS 13) is not visible in the next 10 days
Span
Click to sort rows by Start time (UTC) header in descending order
Start Az.
Max El. time (UTC)
Max El. Az.
Max El.
End time (UTC)
End Az.
|